Time,TemperatureF,DewpointF,PressureIn,WindDirection,WindDirectionDegrees,WindSpeedMPH,WindSpeedGustMPH,Humidity,HourlyPrecipIn,Conditions,Clouds,dailyrainin,SoftwareType,DateUTC
2013-02-06 00:02:00,33.0,29.0,27.32,SE,136,0.0,2.0,86,0.00,,,0.00,,2013-02-06 05:02:00,
2013-02-06 00:12:00,33.0,29.0,27.32,SE,136,0.0,2.0,86,0.00,,,0.00,,2013-02-06 05:12:00,
2013-02-06 00:22:00,33.0,30.0,27.32,SE,136,0.0,0.0,87,0.00,,,0.00,,2013-02-06 05:22:00,
2013-02-06 00:31:00,33.0,29.0,27.32,SE,136,0.0,0.0,84,0.00,,,0.00,,2013-02-06 05:31:00,
2013-02-06 00:41:00,33.0,29.0,27.32,SE,136,0.0,0.0,84,0.00,,,0.00,,2013-02-06 05:41:00,
2013-02-06 00:52:00,33.0,29.0,27.32,SE,136,0.0,0.0,84,0.00,,,0.00,,2013-02-06 05:52:00,
2013-02-06 01:01:00,33.0,29.0,27.32,SE,136,0.0,0.0,84,0.00,,,0.00,,2013-02-06 06:01:00,
2013-02-06 01:11:00,33.0,29.0,27.32,SE,136,0.0,0.0,84,0.00,,,0.00,,2013-02-06 06:11:00,
2013-02-06 01:21:00,33.0,28.0,27.32,SSE,150,1.0,5.0,83,0.00,,,0.00,,2013-02-06 06:21:00,
2013-02-06 01:32:00,33.0,29.0,27.31,SSE,163,3.0,6.0,84,0.00,,,0.00,,2013-02-06 06:32:00,
2013-02-06 01:42:00,33.0,29.0,27.31,SSE,163,3.0,6.0,84,0.00,,,0.00,,2013-02-06 06:42:00,
2013-02-06 01:52:00,34.0,29.0,27.32,SSE,162,0.0,0.0,83,0.00,,,0.00,,2013-02-06 06:52:00,
2013-02-06 02:01:00,33.0,29.0,27.32,SSE,162,1.0,4.0,84,0.00,,,0.00,,2013-02-06 07:01:00,
2013-02-06 02:11:00,33.0,29.0,27.32,SSE,162,1.0,4.0,84,0.00,,,0.00,,2013-02-06 07:11:00,
2013-02-06 02:21:00,33.0,29.0,27.32,SSE,163,1.0,5.0,85,0.00,,,0.00,,2013-02-06 07:21:00,
2013-02-06 02:32:00,33.0,29.0,27.32,SSE,163,1.0,5.0,85,0.00,,,0.00,,2013-02-06 07:32:00,
2013-02-06 02:41:00,33.0,29.0,27.32,SSE,163,1.0,5.0,85,0.00,,,0.00,,2013-02-06 07:41:00,
2013-02-06 02:51:00,34.0,30.0,27.31,SSE,159,5.0,7.0,84,0.00,,,0.00,,2013-02-06 07:51:00,
2013-02-06 03:01:00,34.0,30.0,27.31,SSE,159,5.0,7.0,84,0.00,,,0.00,,2013-02-06 08:01:00,
2013-02-06 03:11:00,34.0,30.0,27.31,SSE,159,5.0,7.0,84,0.00,,,0.00,,2013-02-06 08:11:00,
2013-02-06 03:21:00,35.0,30.0,27.31,South,175,5.0,8.0,81,0.00,,,0.00,,2013-02-06 08:21:00,
2013-02-06 03:31:00,35.0,30.0,27.30,SE,146,6.0,8.0,82,0.00,,,0.00,,2013-02-06 08:31:00,
2013-02-06 03:42:00,35.0,30.0,27.30,SE,146,6.0,8.0,82,0.00,,,0.00,,2013-02-06 08:42:00,
2013-02-06 03:53:00,35.0,30.0,27.30,SE,146,6.0,8.0,82,0.00,,,0.00,,2013-02-06 08:53:00,
2013-02-06 04:01:00,35.0,30.0,27.30,SSE,155,6.0,9.0,83,0.00,,,0.00,,2013-02-06 09:01:00,
2013-02-06 04:11:00,35.0,30.0,27.30,SSE,155,6.0,9.0,83,0.00,,,0.00,,2013-02-06 09:11:00,
2013-02-06 04:21:00,35.0,30.0,27.31,SSE,159,5.0,9.0,82,0.00,,,0.00,,2013-02-06 09:21:00,
2013-02-06 04:31:00,36.0,31.0,27.31,SSE,157,6.0,9.0,81,0.00,,,0.00,,2013-02-06 09:31:00,
2013-02-06 04:41:00,36.0,31.0,27.31,SSE,157,6.0,9.0,81,0.00,,,0.00,,2013-02-06 09:41:00,
2013-02-06 04:51:00,35.0,30.0,27.32,South,188,0.0,7.0,81,0.00,,,0.00,,2013-02-06 09:51:00,
2013-02-06 05:01:00,35.0,30.0,27.32,South,172,4.0,7.0,81,0.00,,,0.00,,2013-02-06 10:01:00,
2013-02-06 05:11:00,35.0,30.0,27.32,South,172,4.0,7.0,81,0.00,,,0.00,,2013-02-06 10:11:00,
2013-02-06 05:21:00,35.0,30.0,27.32,SSE,166,1.0,6.0,81,0.00,,,0.00,,2013-02-06 10:21:00,
2013-02-06 05:31:00,35.0,30.0,27.32,South,186,7.0,9.0,81,0.00,,,0.00,,2013-02-06 10:31:00,
2013-02-06 05:42:00,35.0,30.0,27.32,South,186,7.0,9.0,81,0.00,,,0.00,,2013-02-06 10:42:00,
2013-02-06 05:51:00,34.0,29.0,27.32,South,187,5.0,9.0,83,0.00,,,0.00,,2013-02-06 10:51:00,
2013-02-06 06:01:00,34.0,29.0,27.32,South,187,6.0,10.0,83,0.00,,,0.00,,2013-02-06 11:01:00,
2013-02-06 06:11:00,34.0,29.0,27.32,South,187,6.0,10.0,83,0.00,,,0.00,,2013-02-06 11:11:00,
2013-02-06 06:22:00,34.0,29.0,27.32,South,175,7.0,10.0,83,0.00,,,0.00,,2013-02-06 11:22:00,
2013-02-06 06:32:00,34.0,29.0,27.32,South,175,7.0,10.0,83,0.00,,,0.00,,2013-02-06 11:32:00,
2013-02-06 06:42:00,34.0,29.0,27.32,South,175,7.0,10.0,83,0.00,,,0.00,,2013-02-06 11:42:00,
2013-02-06 06:52:00,34.0,29.0,27.33,South,182,8.0,10.0,83,0.00,,,0.00,,2013-02-06 11:52:00,
2013-02-06 07:02:00,34.0,30.0,27.33,South,186,7.0,11.0,84,0.00,,,0.00,,2013-02-06 12:02:00,
2013-02-06 07:12:00,34.0,30.0,27.33,South,186,7.0,11.0,84,0.00,,,0.00,,2013-02-06 12:12:00,
2013-02-06 07:22:00,34.0,30.0,27.33,South,186,7.0,11.0,84,0.00,,,0.00,,2013-02-06 12:22:00,
2013-02-06 07:32:00,33.0,29.0,27.34,South,180,10.0,13.0,84,0.00,,,0.00,,2013-02-06 12:32:00,
2013-02-06 07:42:00,33.0,29.0,27.34,South,180,10.0,13.0,84,0.00,,,0.00,,2013-02-06 12:42:00,
2013-02-06 07:52:00,33.0,29.0,27.34,South,182,9.0,11.0,84,0.00,,,0.00,,2013-02-06 12:52:00,
2013-02-06 08:01:00,34.0,30.0,27.34,South,184,11.0,13.0,84,0.00,,,0.00,,2013-02-06 13:01:00,
2013-02-06 08:12:00,34.0,30.0,27.34,South,184,11.0,13.0,84,0.00,,,0.00,,2013-02-06 13:12:00,
2013-02-06 08:22:00,33.0,29.0,27.35,South,187,8.0,10.0,84,0.00,,,0.00,,2013-02-06 13:22:00,
2013-02-06 08:32:00,33.0,29.0,27.35,South,186,7.0,10.0,84,0.00,,,0.00,,2013-02-06 13:32:00,
2013-02-06 08:42:00,33.0,29.0,27.35,South,186,7.0,10.0,84,0.00,,,0.00,,2013-02-06 13:42:00,
2013-02-06 08:52:00,33.0,29.0,27.35,South,182,8.0,10.0,85,0.00,,,0.00,,2013-02-06 13:52:00,
2013-02-06 09:02:00,33.0,29.0,27.36,South,176,9.0,12.0,84,0.00,,,0.00,,2013-02-06 14:02:00,
2013-02-06 09:11:00,33.0,29.0,27.36,South,176,9.0,12.0,84,0.00,,,0.00,,2013-02-06 14:11:00,
2013-02-06 09:22:00,33.0,29.0,27.36,South,176,9.0,12.0,84,0.00,,,0.00,,2013-02-06 14:22:00,
2013-02-06 09:32:00,34.0,29.0,27.38,South,190,8.0,13.0,81,0.00,,,0.00,,2013-02-06 14:32:00,
2013-02-06 09:42:00,34.0,29.0,27.38,South,190,8.0,13.0,81,0.00,,,0.00,,2013-02-06 14:42:00,
2013-02-06 09:52:00,34.0,28.0,27.38,South,176,7.0,12.0,80,0.00,,,0.00,,2013-02-06 14:52:00,
2013-02-06 10:01:00,34.0,28.0,27.39,SW,221,7.0,14.0,79,0.00,,,0.00,,2013-02-06 15:01:00,
2013-02-06 10:11:00,34.0,28.0,27.39,SW,221,7.0,14.0,79,0.00,,,0.00,,2013-02-06 15:11:00,
2013-02-06 10:21:00,34.0,28.0,27.39,SW,221,7.0,14.0,79,0.00,,,0.00,,2013-02-06 15:21:00,
2013-02-06 10:31:00,35.0,29.0,27.40,South,177,10.0,13.0,80,0.00,,,0.00,,2013-02-06 15:31:00,
2013-02-06 10:42:00,35.0,29.0,27.40,South,177,10.0,13.0,80,0.00,,,0.00,,2013-02-06 15:42:00,
2013-02-06 10:52:00,36.0,29.0,27.41,South,174,10.0,19.0,76,0.00,,,0.00,,2013-02-06 15:52:00,
2013-02-06 11:01:00,36.0,29.0,27.42,SSW,192,10.0,15.0,74,0.00,,,0.00,,2013-02-06 16:01:00,
2013-02-06 11:11:00,36.0,29.0,27.42,SSW,192,10.0,15.0,74,0.00,,,0.00,,2013-02-06 16:11:00,
2013-02-06 11:21:00,37.0,29.0,27.42,South,187,9.0,13.0,74,0.00,,,0.00,,2013-02-06 16:21:00,
2013-02-06 11:32:00,37.0,29.0,27.43,SSW,198,9.0,12.0,74,0.00,,,0.00,,2013-02-06 16:32:00,
2013-02-06 11:42:00,37.0,29.0,27.43,SSW,198,9.0,12.0,74,0.00,,,0.00,,2013-02-06 16:42:00,
2013-02-06 11:52:00,38.0,30.0,27.43,South,184,8.0,12.0,72,0.00,,,0.00,,2013-02-06 16:52:00,
2013-02-06 12:02:00,39.0,31.0,27.43,SSW,194,7.0,11.0,72,0.00,,,0.00,,2013-02-06 17:02:00,
2013-02-06 12:11:00,39.0,31.0,27.43,SSW,194,7.0,11.0,72,0.00,,,0.00,,2013-02-06 17:11:00,
2013-02-06 12:21:00,39.0,30.0,27.43,SSW,201,8.0,10.0,69,0.00,,,0.00,,2013-02-06 17:21:00,
2013-02-06 12:32:00,40.0,30.0,27.44,SW,219,8.0,11.0,68,0.00,,,0.00,,2013-02-06 17:32:00,
2013-02-06 12:42:00,40.0,30.0,27.44,SW,219,8.0,11.0,68,0.00,,,0.00,,2013-02-06 17:42:00,
2013-02-06 12:52:00,42.0,31.0,27.44,SW,235,6.0,13.0,66,0.00,,,0.00,,2013-02-06 17:52:00,
2013-02-06 13:01:00,43.0,30.0,27.44,WSW,242,7.0,14.0,60,0.00,,,0.00,,2013-02-06 18:01:00,
2013-02-06 13:11:00,43.0,30.0,27.44,WSW,242,7.0,14.0,60,0.00,,,0.00,,2013-02-06 18:11:00,
2013-02-06 13:23:00,44.0,30.0,27.44,SW,225,8.0,16.0,58,0.00,,,0.00,,2013-02-06 18:23:00,
2013-02-06 13:32:00,44.0,30.0,27.44,WNW,284,11.0,15.0,57,0.00,,,0.00,,2013-02-06 18:32:00,
2013-02-06 13:42:00,44.0,30.0,27.44,WNW,284,11.0,15.0,57,0.00,,,0.00,,2013-02-06 18:42:00,
2013-02-06 13:52:00,45.0,30.0,27.43,West,263,10.0,20.0,56,0.00,,,0.00,,2013-02-06 18:52:00,
2013-02-06 14:01:00,45.0,30.0,27.43,West,265,9.0,18.0,56,0.00,,,0.00,,2013-02-06 19:01:00,
2013-02-06 14:11:00,45.0,30.0,27.43,West,265,9.0,18.0,56,0.00,,,0.00,,2013-02-06 19:11:00,
2013-02-06 14:21:00,46.0,30.0,27.43,NW,304,10.0,21.0,54,0.00,,,0.00,,2013-02-06 19:21:00,
2013-02-06 14:32:00,46.0,30.0,27.43,NW,304,10.0,21.0,54,0.00,,,0.00,,2013-02-06 19:32:00,
2013-02-06 14:42:00,46.0,30.0,27.43,NW,304,10.0,21.0,54,0.00,,,0.00,,2013-02-06 19:42:00,
2013-02-06 14:52:00,46.0,29.0,27.44,WSW,249,11.0,20.0,51,0.00,,,0.00,,2013-02-06 19:52:00,
2013-02-06 15:01:00,46.0,29.0,27.44,WSW,248,10.0,23.0,52,0.00,,,0.00,,2013-02-06 20:01:00,
2013-02-06 15:11:00,46.0,29.0,27.44,WSW,248,10.0,23.0,52,0.00,,,0.00,,2013-02-06 20:11:00,
2013-02-06 15:21:00,46.0,30.0,27.44,West,259,11.0,20.0,53,0.00,,,0.00,,2013-02-06 20:21:00,
2013-02-06 15:32:00,46.0,29.0,27.44,West,278,12.0,21.0,51,0.00,,,0.00,,2013-02-06 20:32:00,
2013-02-06 15:42:00,46.0,29.0,27.44,West,278,12.0,21.0,51,0.00,,,0.00,,2013-02-06 20:42:00,
2013-02-06 15:52:00,47.0,31.0,27.44,West,267,8.0,18.0,53,0.00,,,0.00,,2013-02-06 20:52:00,
2013-02-06 16:02:00,47.0,30.0,27.45,WNW,283,10.0,19.0,52,0.00,,,0.00,,2013-02-06 21:02:00,
2013-02-06 16:11:00,47.0,30.0,27.45,WNW,283,10.0,19.0,52,0.00,,,0.00,,2013-02-06 21:11:00,
2013-02-06 16:21:00,47.0,29.0,27.44,WNW,285,10.0,19.0,50,0.00,,,0.00,,2013-02-06 21:21:00,
2013-02-06 16:32:00,47.0,29.0,27.44,WSW,254,8.0,21.0,49,0.00,,,0.00,,2013-02-06 21:32:00,
2013-02-06 16:42:00,47.0,29.0,27.44,WSW,254,8.0,21.0,49,0.00,,,0.00,,2013-02-06 21:42:00,
2013-02-06 16:51:00,47.0,29.0,27.44,WSW,254,8.0,21.0,49,0.00,,,0.00,,2013-02-06 21:51:00,
2013-02-06 17:01:00,47.0,28.0,27.45,WSW,245,7.0,25.0,48,0.00,,,0.00,,2013-02-06 22:01:00,
2013-02-06 17:11:00,47.0,28.0,27.45,WSW,245,7.0,25.0,48,0.00,,,0.00,,2013-02-06 22:11:00,
2013-02-06 17:21:00,47.0,28.0,27.46,West,271,11.0,20.0,47,0.00,,,0.00,,2013-02-06 22:21:00,
2013-02-06 17:31:00,47.0,28.0,27.46,WNW,294,13.0,23.0,47,0.00,,,0.00,,2013-02-06 22:31:00,
2013-02-06 17:42:00,47.0,28.0,27.46,WNW,294,13.0,23.0,47,0.00,,,0.00,,2013-02-06 22:42:00,
2013-02-06 17:51:00,47.0,29.0,27.47,WNW,284,8.0,16.0,49,0.00,,,0.00,,2013-02-06 22:51:00,
2013-02-06 18:01:00,46.0,28.0,27.47,West,273,6.0,14.0,50,0.00,,,0.00,,2013-02-06 23:01:00,
2013-02-06 18:11:00,46.0,28.0,27.47,West,273,6.0,14.0,50,0.00,,,0.00,,2013-02-06 23:11:00,
2013-02-06 18:21:00,46.0,28.0,27.47,West,259,8.0,13.0,49,0.00,,,0.00,,2013-02-06 23:21:00,
2013-02-06 18:32:00,46.0,29.0,27.48,WNW,284,5.0,12.0,51,0.00,,,0.00,,2013-02-06 23:32:00,
2013-02-06 18:42:00,46.0,29.0,27.48,WNW,284,5.0,12.0,51,0.00,,,0.00,,2013-02-06 23:42:00,
2013-02-06 18:52:00,45.0,29.0,27.48,WNW,286,4.0,8.0,53,0.00,,,0.00,,2013-02-06 23:52:00,
2013-02-06 19:01:00,44.0,29.0,27.48,WSW,241,2.0,6.0,56,0.00,,,0.00,,2013-02-07 00:01:00,
2013-02-06 19:11:00,44.0,29.0,27.48,WSW,241,2.0,6.0,56,0.00,,,0.00,,2013-02-07 00:11:00,
2013-02-06 19:21:00,43.0,28.0,27.48,West,267,1.0,6.0,56,0.00,,,0.00,,2013-02-07 00:21:00,
2013-02-06 19:31:00,42.0,29.0,27.49,WSW,243,0.0,4.0,59,0.00,,,0.00,,2013-02-07 00:31:00,
2013-02-06 19:42:00,42.0,29.0,27.49,WSW,243,0.0,4.0,59,0.00,,,0.00,,2013-02-07 00:42:00,
2013-02-06 19:51:00,41.0,27.0,27.49,WSW,242,0.0,1.0,57,0.00,,,0.00,,2013-02-07 00:51:00,
2013-02-06 20:01:00,40.0,27.0,27.50,SW,232,2.0,5.0,60,0.00,,,0.00,,2013-02-07 01:01:00,
2013-02-06 20:11:00,40.0,27.0,27.50,SW,232,2.0,5.0,60,0.00,,,0.00,,2013-02-07 01:11:00,
2013-02-06 20:21:00,39.0,27.0,27.51,South,188,1.0,6.0,62,0.00,,,0.00,,2013-02-07 01:21:00,
2013-02-06 20:32:00,39.0,28.0,27.51,SSE,158,4.0,6.0,64,0.00,,,0.00,,2013-02-07 01:32:00,
2013-02-06 20:42:00,39.0,28.0,27.51,SSE,158,4.0,6.0,64,0.00,,,0.00,,2013-02-07 01:42:00,
2013-02-06 20:52:00,38.0,28.0,27.51,SSE,157,3.0,6.0,67,0.00,,,0.00,,2013-02-07 01:52:00,
2013-02-06 21:01:00,37.0,27.0,27.52,SSE,153,3.0,6.0,66,0.00,,,0.00,,2013-02-07 02:01:00,
2013-02-06 21:11:00,37.0,27.0,27.52,SSE,153,3.0,6.0,66,0.00,,,0.00,,2013-02-07 02:11:00,
2013-02-06 21:21:00,37.0,27.0,27.52,South,184,5.0,7.0,67,0.00,,,0.00,,2013-02-07 02:21:00,
2013-02-06 21:32:00,37.0,28.0,27.53,SSE,167,2.0,6.0,69,0.00,,,0.00,,2013-02-07 02:32:00,
2013-02-06 21:41:00,37.0,28.0,27.53,SSE,167,2.0,6.0,69,0.00,,,0.00,,2013-02-07 02:41:00,
2013-02-06 21:51:00,37.0,28.0,27.53,SSE,167,2.0,6.0,69,0.00,,,0.00,,2013-02-07 02:51:00,
2013-02-06 22:02:00,36.0,28.0,27.54,SW,221,2.0,7.0,71,0.00,,,0.00,,2013-02-07 03:02:00,
2013-02-06 22:11:00,36.0,28.0,27.54,SW,221,2.0,7.0,71,0.00,,,0.00,,2013-02-07 03:11:00,
2013-02-06 22:21:00,37.0,28.0,27.55,SW,217,0.0,1.0,70,0.00,,,0.00,,2013-02-07 03:21:00,
2013-02-06 22:31:00,38.0,29.0,27.54,SSW,205,3.0,9.0,69,0.00,,,0.00,,2013-02-07 03:31:00,
2013-02-06 22:42:00,38.0,29.0,27.54,SSW,205,3.0,9.0,69,0.00,,,0.00,,2013-02-07 03:42:00,
2013-02-06 22:52:00,38.0,29.0,27.55,SSE,162,3.0,8.0,69,0.00,,,0.00,,2013-02-07 03:52:00,
2013-02-06 23:01:00,37.0,28.0,27.55,South,172,3.0,7.0,70,0.00,,,0.00,,2013-02-07 04:01:00,
2013-02-06 23:11:00,37.0,28.0,27.55,South,172,3.0,7.0,70,0.00,,,0.00,,2013-02-07 04:11:00,
2013-02-06 23:22:00,36.0,28.0,27.55,South,175,5.0,8.0,71,0.00,,,0.00,,2013-02-07 04:22:00,
2013-02-06 23:32:00,35.0,28.0,27.56,South,170,6.0,10.0,74,0.00,,,0.00,,2013-02-07 04:32:00,
2013-02-06 23:41:00,35.0,28.0,27.56,South,170,6.0,10.0,74,0.00,,,0.00,,2013-02-07 04:41:00,